Date,TemperatureHighF,TemperatureAvgF,TemperatureLowF,DewpointHighF,DewpointAvgF,DewpointLowF,HumidityHigh,HumidityAvg,HumidityLow,PressureMaxIn,PressureMinIn,WindSpeedMaxMPH,WindSpeedAvgMPH,GustSpeedMaxMPH,PrecipitationSumIn
2013-1-1,25,17,8,9,3,-6,85,58,28,0.00,40.00,0,-999,0,0.00
2013-1-2,31,20,13,5,0,-4,53,42,23,0.00,40.00,0,-999,0,0.00
2013-1-3,34,20,9,0,-4,-10,50,35,14,0.00,40.00,0,-999,0,0.00
2013-1-4,44,28,17,11,4,-1,56,38,19,0.00,40.00,0,-999,0,0.00
2013-1-5,37,26,19,9,4,-5,60,39,21,0.00,40.00,0,-999,0,0.00
2013-1-6,40,27,15,9,0,-7,47,31,15,0.00,40.00,0,-999,0,0.00
2013-1-7,48,38,26,14,2,-5,59,24,11,0.00,40.00,0,-999,0,0.00
2013-1-8,47,40,29,14,9,0,53,28,16,0.00,40.00,0,-999,0,0.00
2013-1-9,50,36,26,14,12,9,57,39,21,0.00,40.00,0,-999,0,0.00
2013-1-10,37,30,22,19,12,6,58,48,28,0.00,40.00,0,-999,0,0.00
2013-1-11,39,26,10,19,1,-100,84,46,15,0.00,40.00,0,-999,0,0.00
2013-1-12,10,5,1,3,0,-3,87,77,63,0.00,40.00,0,-999,0,0.00
2013-1-13,10,4,-1,2,-2,-6,84,76,62,0.00,40.00,0,-999,0,0.00
2013-1-14,10,3,-3,-2,-5,-8,82,68,46,0.00,40.00,0,-999,0,0.00
2013-1-15,29,15,-3,11,0,-10,72,54,32,0.00,40.00,0,-999,0,0.00
2013-1-16,51,37,23,15,12,6,59,36,20,0.00,40.00,0,-999,0,0.00
2013-1-17,48,33,22,15,10,6,66,43,17,0.00,40.00,0,-999,0,0.00
2013-1-18,56,41,24,12,-2,-7,56,20,7,0.00,40.00,0,-999,0,0.00
2013-1-19,56,47,34,5,-6,-12,28,11,6,0.00,40.00,0,-999,0,0.00
2013-1-20,45,32,21,12,5,-10,63,34,9,0.00,40.00,0,-999,0,0.00
2013-1-21,52,34,15,13,4,-13,77,39,7,0.00,40.00,0,-999,0,0.00
2013-1-22,61,48,36,2,-12,-27,16,8,2,0.00,40.00,0,-999,0,0.00
2013-1-23,60,49,33,2,-13,-25,19,8,2,0.00,40.00,0,-999,0,0.00
2013-1-24,59,44,28,20,9,-4,41,25,9,0.00,40.00,0,-999,0,0.00
2013-1-25,47,36,30,22,20,17,65,52,34,0.00,40.00,0,-999,0,0.00
2013-1-26,47,39,28,35,24,20,87,57,35,0.00,40.00,0,-999,0,0.01
2013-1-27,53,40,31,32,26,16,91,61,31,0.00,40.00,0,-999,0,0.00
2013-1-28,46,32,24,29,20,12,99,66,30,0.00,40.00,0,-999,0,0.13
2013-1-29,28,21,14,21,9,2,94,63,35,0.00,40.00,0,-999,0,0.06
2013-1-30,37,25,11,9,3,-6,74,41,25,0.00,40.00,0,-999,0,0.00
2013-1-31,44,36,27,18,12,7,67,41,22,0.00,40.00,0,-999,0,0.00
2013-2-1,46,33,20,18,10,-100,85,48,20,0.00,40.00,0,-999,0,0.00
2013-2-2,54,38,20,17,2,-100,78,37,10,0.00,40.00,0,-999,0,0.00
2013-2-3,46,36,25,12,5,-100,53,32,12,0.00,40.00,0,-999,0,0.00
2013-2-4,53,41,27,7,-4,-100,39,18,9,0.00,40.00,0,-999,0,0.00
2013-2-5,58,45,29,15,11,6,39,25,17,0.00,40.00,0,-999,0,0.00
2013-2-6,51,41,32,31,18,12,88,44,20,0.00,40.00,0,-999,0,0.01
2013-2-7,43,33,22,25,14,6,84,49,21,0.00,40.00,0,-999,0,0.00
2013-2-8,47,38,28,5,-2,-100,37,23,10,0.00,40.00,0,-999,0,0.00
2013-2-9,33,28,23,24,14,5,88,58,38,0.00,40.00,0,-999,0,0.00
2013-2-10,33,25,19,18,10,2,85,55,28,0.00,40.00,0,-999,0,0.00
2013-2-11,23,18,14,14,11,6,86,73,60,0.00,40.00,0,-999,0,0.00
2013-2-12,37,24,11,6,-8,-100,74,38,10,0.00,40.00,0,-999,0,0.00
2013-2-13,43,33,22,6,3,-1,39,28,19,0.00,40.00,0,-999,0,0.00
2013-2-14,33,23,16,21,13,6,90,67,34,0.00,40.00,0,-999,0,0.10
2013-2-15,37,23,11,14,10,1,84,60,21,0.00,40.00,0,-999,0,0.00
2013-2-16,53,44,20,13,5,-1,73,20,13,0.00,40.00,0,-999,0,0.00
2013-2-17,57,45,30,12,-13,-100,47,14,5,0.00,40.00,0,-999,0,0.00
2013-2-18,38,28,20,16,3,-13,70,39,13,0.00,40.00,0,-999,0,0.00
2013-2-19,37,24,16,8,4,2,57,44,23,0.00,40.00,0,-999,0,0.00
2013-2-20,31,21,13,22,13,3,97,71,41,0.00,40.00,0,-999,0,0.11
2013-2-21,23,17,11,18,14,9,93,87,73,0.00,40.00,0,-999,0,0.06
2013-2-22,29,20,12,15,11,3,87,69,51,0.00,40.00,0,-999,0,0.00
2013-2-23,41,25,14,19,10,-1,73,53,29,0.00,40.00,0,-999,0,0.00
2013-2-24,26,23,20,24,22,18,98,93,89,0.00,40.00,0,-999,0,0.24
2013-2-25,32,20,7,16,1,-100,88,69,39,0.00,40.00,0,-999,0,0.00
2013-2-26,30,22,13,21,15,9,91,73,52,0.00,40.00,0,-999,0,0.04
2013-2-27,33,23,13,10,2,-100,71,48,22,0.00,40.00,0,-999,0,0.00
2013-2-28,38,30,15,9,3,-3,55,32,20,0.00,40.00,0,-999,0,0.00
2013-3-1,41,34,22,21,14,7,60,43,31,0.00,40.00,0,-999,0,0.00
2013-3-2,56,45,29,19,17,16,64,35,21,0.00,40.00,0,-999,0,0.00
2013-3-4,29,22,17,22,17,10,92,81,67,0.00,40.00,0,-999,0,0.07
2013-3-5,36,22,9,16,10,4,81,63,33,0.00,40.00,0,-999,0,0.00
2013-3-6,52,34,20,24,19,14,80,58,23,0.00,40.00,0,-999,0,0.00
2013-3-7,60,45,29,23,20,13,69,40,17,0.00,40.00,0,-999,0,0.00
2013-3-8,42,35,27,28,25,19,82,67,50,0.00,40.00,0,-999,0,0.00
2013-3-9,33,28,22,29,24,15,99,88,70,0.00,40.00,0,-999,0,0.21
2013-3-10,40,27,13,18,7,-100,82,57,27,0.00,40.00,0,-999,0,0.00
2013-3-11,51,39,27,28,10,-100,99,45,22,0.00,40.00,0,-999,0,0.08
2013-3-12,32,25,21,27,22,19,99,86,67,0.00,40.00,0,-999,0,0.15
2013-3-13,61,42,24,27,22,15,90,50,16,0.00,40.00,0,-999,0,0.00
2013-3-14,68,53,41,20,16,6,39,25,8,0.00,40.00,0,-999,0,0.00
2013-3-15,70,61,51,19,13,9,24,15,9,0.00,40.00,0,-999,0,0.00
2013-3-16,55,44,37,29,26,22,67,50,27,0.00,40.00,0,-999,0,0.00
2013-3-17,53,42,32,24,16,8,66,38,15,0.00,40.00,0,-999,0,0.00
2013-3-18,44,38,30,9,4,-3,36,24,17,0.00,40.00,0,-999,0,0.00
2013-3-19,51,41,31,7,-8,-22,36,13,4,0.00,40.00,0,-999,0,0.00
2013-3-20,46,31,17,17,13,10,76,51,27,0.00,40.00,0,-999,0,0.00
2013-3-21,55,43,32,28,15,1,52,34,14,0.00,40.00,0,-999,0,0.00
2013-3-22,40,31,24,26,13,1,99,52,27,0.00,40.00,0,-999,0,0.13
2013-3-23,23,16,12,22,14,7,98,89,80,0.00,40.00,0,-999,0,0.26
2013-3-24,26,15,3,12,6,-1,84,68,42,0.00,40.00,0,-999,0,0.00
2013-3-25,29,21,12,10,8,4,86,60,39,0.00,40.00,0,-999,0,0.00
2013-3-26,42,30,14,25,16,7,73,57,33,0.00,40.00,0,-999,0,0.00
2013-3-27,47,37,27,32,26,20,82,64,46,0.00,40.00,0,-999,0,0.00
2013-3-28,58,45,30,29,25,18,90,52,24,0.00,40.00,0,-999,0,0.00
2013-3-29,61,51,37,28,23,16,65,36,18,0.00,40.00,0,-999,0,0.00
2013-3-30,63,48,35,34,23,-100,81,44,14,0.00,40.00,0,-999,0,0.00
2013-3-31,64,49,31,31,20,12,80,39,12,0.00,40.00,0,-999,0,0.00
2013-4-1,47,39,28,30,26,18,81,59,34,0.00,40.00,0,-999,0,0.03
2013-4-2,35,34,30,32,29,27,99,84,76,0.00,40.00,0,-999,0,0.24
2013-4-3,56,44,33,34,30,22,99,62,28,0.00,40.00,0,-999,0,0.00
2013-4-4,64,51,37,30,24,13,70,37,13,0.00,40.00,0,-999,0,0.00
2013-4-5,68,58,48,31,18,10,50,22,11,0.00,40.00,0,-999,0,0.00
2013-4-6,62,51,39,23,17,13,40,27,14,0.00,40.00,0,-999,0,0.00
2013-4-7,61,50,36,30,22,10,72,37,13,0.00,40.00,0,-999,0,0.00
2013-4-8,57,40,26,30,26,19,99,60,25,0.00,40.00,0,-999,0,0.21
2013-4-9,24,15,10,24,13,7,99,92,89,0.00,40.00,0,-999,0,0.15
2013-4-10,25,15,0,15,9,-3,92,78,53,0.00,40.00,0,-999,0,0.00
2013-4-11,51,33,15,31,21,13,88,65,35,0.00,40.00,0,-999,0,0.00
2013-4-12,54,41,32,30,27,21,85,59,27,0.00,40.00,0,-999,0,0.00
2013-4-13,64,45,28,30,22,9,91,51,12,0.00,40.00,0,-999,0,0.11
2013-4-14,43,39,34,35,13,0,84,37,16,0.00,40.00,0,-999,0,0.14
2013-4-15,36,24,19,24,19,7,95,84,29,0.00,40.00,0,-999,0,0.67
2013-4-16,29,23,19,25,21,17,94,89,75,0.00,40.00,0,-999,0,0.02
2013-4-17,26,22,17,24,20,14,99,93,88,0.00,40.00,0,-999,0,0.19
2013-4-18,30,22,8,14,9,5,91,62,38,0.00,40.00,0,-999,0,0.00
2013-4-19,49,38,21,17,13,10,66,39,21,0.00,40.00,0,-999,0,0.00
2013-4-20,54,44,30,29,24,18,77,47,32,0.00,40.00,0,-999,0,0.00
2013-4-21,59,48,33,28,19,9,79,36,14,0.00,40.00,0,-999,0,0.00
2013-4-22,48,32,20,32,23,18,95,73,37,0.00,40.00,0,-999,0,0.49
2013-4-23,33,22,17,20,15,10,94,79,42,0.00,40.00,0,-999,0,0.24
2013-4-24,52,34,17,20,14,9,81,49,17,0.00,40.00,0,-999,0,0.00
2013-4-25,61,45,27,26,16,8,59,34,12,0.00,40.00,0,-999,0,0.00
2013-4-26,61,51,40,19,14,8,43,24,12,0.00,40.00,0,-999,0,0.00
2013-4-27,70,57,40,20,12,6,43,18,7,0.00,40.00,0,-999,0,0.00
2013-4-28,75,63,49,23,16,9,25,16,10,0.00,40.00,0,-999,0,0.00
2013-4-29,73,63,46,31,21,11,51,23,9,0.00,40.00,0,-999,0,0.00
2013-4-30,62,49,31,34,28,13,94,50,14,0.00,40.00,0,-999,0,0.28
2013-5-1,33,27,21,32,26,19,100,96,90,0.00,40.00,0,-999,0,0.74
2013-5-2,41,29,16,22,16,10,93,63,30,0.00,40.00,0,-999,0,0.00
2013-5-3,54,41,26,28,21,15,77,49,27,0.00,40.00,0,-999,0,0.00
2013-5-4,53,45,34,28,24,20,68,45,30,0.00,40.00,0,-999,0,0.00
2013-5-5,40,38,37,23,21,19,51,49,46,0.00,40.00,0,-999,0,0.00
2013-5-6,60,56,50,32,28,26,49,35,27,0.00,40.00,0,-999,0,0.00
2013-5-7,63,52,43,42,33,28,80,52,26,0.00,40.00,0,-999,0,0.04
2013-5-8,55,46,42,42,37,32,93,73,49,0.00,40.00,0,-999,0,0.74
2013-5-9,55,47,43,41,38,34,90,70,48,0.00,40.00,0,-999,0,0.10
2013-5-10,63,51,37,37,32,27,77,51,27,0.00,40.00,0,-999,0,0.00
2013-5-11,62,53,42,38,34,26,67,49,32,0.00,40.00,0,-999,0,0.01
2013-5-12,73,62,47,34,29,25,60,31,17,0.00,40.00,0,-999,0,0.00
2013-5-13,79,71,56,35,28,22,36,21,15,0.00,40.00,0,-999,0,0.00
2013-5-14,79,69,57,33,22,-100,35,23,13,0.00,40.00,0,-999,0,0.00
2013-5-15,75,64,53,43,29,-100,54,32,19,0.00,40.00,0,-999,0,0.00
2013-5-16,77,63,51,44,23,-100,67,42,13,0.00,40.00,0,-999,0,0.00
2013-5-17,82,69,48,39,-1,-100,60,26,8,0.00,40.00,0,-999,0,0.00
2013-5-18,70,65,56,30,-10,-100,38,19,8,0.00,40.00,0,-999,0,0.00
2013-5-19,52,51,50,33,27,24,47,40,34,0.00,40.00,0,-999,0,0.00
2013-5-20,57,53,47,39,37,33,74,54,46,0.00,40.00,0,-999,0,0.00
2013-5-21,67,53,39,34,28,21,79,42,17,0.00,40.00,0,-999,0,0.00
2013-5-22,72,55,42,47,33,27,83,46,20,0.00,40.00,0,-999,0,0.05
2013-5-23,66,54,45,45,43,41,86,67,46,0.00,40.00,0,-999,0,0.00
2013-5-24,78,60,43,45,38,25,88,52,15,0.00,40.00,0,-999,0,0.00
2013-5-25,80,67,51,49,35,14,79,38,8,0.00,40.00,0,-999,0,0.00
2013-5-26,79,68,55,35,22,11,39,19,8,0.00,40.00,0,-999,0,0.00
2013-5-27,77,63,56,26,18,5,29,18,8,0.00,40.00,0,-999,0,0.00
2013-5-28,75,62,46,39,30,16,58,33,12,0.00,40.00,0,-999,0,0.00
2013-5-29,63,53,45,45,37,24,89,58,27,0.00,40.00,0,-999,0,0.16
2013-5-30,65,55,44,28,22,14,52,29,14,0.00,40.00,0,-999,0,0.00
2013-5-31,68,58,47,19,11,3,28,16,7,0.00,40.00,0,-999,0,0.00
2013-6-1,66,54,44,33,29,16,57,39,26,0.00,40.00,0,-999,0,0.00
2013-6-2,79,61,43,32,27,19,54,31,11,0.00,40.00,0,-999,0,0.00
2013-6-3,86,72,53,33,21,11,33,17,6,0.00,40.00,0,-999,0,0.00
2013-6-4,66,57,48,47,38,20,82,52,22,0.00,40.00,0,-999,0,0.09
2013-6-5,53,47,42,44,42,40,94,83,69,0.00,40.00,0,-999,0,0.01
2013-6-6,73,58,40,42,27,-100,89,50,18,0.00,40.00,0,-999,0,0.00
2013-6-7,77,61,48,38,36,34,63,42,22,0.00,40.00,0,-999,0,0.00
2013-6-8,72,65,56,45,33,-100,57,36,25,0.00,40.00,0,-999,0,0.00
2013-6-9,85,67,47,41,14,-100,67,34,12,0.00,40.00,0,-999,0,0.00
2013-6-10,91,78,64,41,-12,-100,32,16,8,0.00,40.00,0,-999,0,0.00
2013-6-11,94,78,62,35,6,-100,31,14,2,0.00,40.00,0,-999,0,0.00
2013-6-12,86,74,62,41,-11,-100,33,16,10,0.00,40.00,0,-999,0,0.00
2013-6-13,76,64,55,62,50,43,82,62,41,0.00,40.00,0,-999,0,0.04
2013-6-14,83,72,59,48,20,-100,59,31,12,0.00,40.00,0,-999,0,0.00
2013-6-15,76,65,52,46,41,39,65,43,26,0.00,40.00,0,-999,0,0.00
2013-6-16,77,66,53,47,29,-100,72,42,12,0.00,40.00,0,-999,0,0.00
2013-6-17,77,68,61,47,30,-100,56,40,23,0.00,40.00,0,-999,0,0.00
2013-6-18,81,70,58,53,44,-100,67,44,24,0.00,40.00,0,-999,0,0.01
2013-6-19,91,72,52,50,38,-100,79,38,7,0.00,40.00,0,-999,0,0.00
2013-6-20,83,71,58,44,22,-100,52,23,8,0.00,40.00,0,-999,0,0.00
2013-6-22,85,75,65,50,43,31,51,34,14,0.00,40.00,0,-999,0,0.01
2013-6-23,81,68,55,50,44,39,70,43,24,0.00,40.00,0,-999,0,0.00
2013-6-24,86,75,58,46,37,17,64,29,9,0.00,40.00,0,-999,0,0.00
2013-6-25,90,80,70,35,26,-100,23,14,11,0.00,40.00,0,-999,0,0.00
2013-6-26,96,80,63,39,35,31,33,21,10,0.00,40.00,0,-999,0,0.00
2013-6-27,93,84,70,44,34,-100,29,19,11,0.00,40.00,0,-999,0,0.00
2013-6-28,90,77,61,60,49,41,86,40,26,0.00,40.00,0,-999,0,0.36
2013-6-29,82,71,60,58,53,47,79,54,30,0.00,40.00,0,-999,0,0.00
2013-6-30,76,69,63,58,54,52,76,59,44,0.00,40.00,0,-999,0,0.02
2013-7-1,80,68,56,54,51,47,80,56,34,0.00,40.00,0,-999,0,0.00
2013-7-2,80,69,54,52,47,43,81,49,29,0.00,40.00,0,-999,0,0.00
2013-7-3,85,72,55,50,44,40,69,40,20,0.00,40.00,0,-999,0,0.00
2013-7-4,87,77,64,54,43,39,46,30,21,0.00,40.00,0,-999,0,0.05
2013-7-5,84,73,63,57,51,46,63,46,28,0.00,40.00,0,-999,0,0.00
2013-7-6,90,78,64,55,44,-100,64,36,17,0.00,40.00,0,-999,0,0.01
2013-7-7,86,77,65,57,49,44,60,39,23,0.00,40.00,0,-999,0,0.00
2013-7-8,94,78,65,56,42,-100,71,37,10,0.00,40.00,0,-999,0,0.00
2013-7-9,92,81,68,48,40,34,39,25,13,0.00,40.00,0,-999,0,0.00
2013-7-11,97,88,78,52,32,-100,37,24,10,0.00,40.00,0,-999,0,0.02
2013-7-12,89,76,69,59,52,44,70,45,23,0.00,40.00,0,-999,0,0.06
2013-7-13,86,71,65,64,57,54,77,64,34,0.00,40.00,0,-999,0,0.06
2013-7-14,78,70,59,62,57,52,84,64,47,0.00,40.00,0,-999,0,0.00
2013-7-15,76,68,62,63,59,53,94,72,55,0.00,40.00,0,-999,0,0.15
2013-7-16,82,68,55,53,49,44,87,55,27,0.00,40.00,0,-999,0,0.00
2013-7-17,89,73,56,56,51,47,76,49,25,0.00,40.00,0,-999,0,0.00
2013-7-18,89,75,64,55,52,49,62,45,26,0.00,40.00,0,-999,0,0.00
2013-7-19,80,73,64,57,54,48,75,52,31,0.00,40.00,0,-999,0,0.00
2013-7-20,87,72,58,55,50,47,72,48,26,0.00,40.00,0,-999,0,0.00
2013-7-21,88,73,55,57,43,-100,79,49,28,0.00,40.00,0,-999,0,0.00
2013-7-22,90,80,63,51,42,-100,54,30,20,0.00,40.00,0,-999,0,0.00
2013-7-23,87,76,65,55,40,-100,54,32,17,0.00,40.00,0,-999,0,0.00
2013-7-24,81,73,64,58,52,44,70,50,28,0.00,40.00,0,-999,0,0.00
2013-7-25,78,66,58,60,54,52,86,67,41,0.00,40.00,0,-999,0,0.23
2013-7-26,82,70,58,53,49,43,75,50,25,0.00,40.00,0,-999,0,0.00
2013-7-27,73,65,55,60,52,47,93,65,50,0.00,40.00,0,-999,0,0.19
2013-7-28,70,62,58,60,58,56,95,85,60,0.00,40.00,0,-999,0,0.02
2013-7-29,72,63,57,60,55,49,91,76,50,0.00,40.00,0,-999,0,0.03
2013-7-30,86,71,59,55,50,45,72,50,24,0.00,40.00,0,-999,0,0.03
2013-7-31,88,74,58,53,49,40,73,45,18,0.00,40.00,0,-999,0,0.00
2013-8-1,87,71,59,62,54,42,79,56,23,0.00,40.00,0,-999,0,0.08
2013-8-2,93,76,62,55,48,34,69,42,12,0.00,40.00,0,-999,0,0.00
2013-8-3,88,71,62,61,52,-100,92,57,17,0.00,40.00,0,-999,0,0.08
2013-8-4,88,74,58,55,48,41,72,43,18,0.00,40.00,0,-999,0,0.00
2013-8-5,85,72,62,55,48,42,63,44,25,0.00,40.00,0,-999,0,0.01
2013-8-6,84,72,59,55,47,39,61,42,25,0.00,40.00,0,-999,0,0.03
2013-8-7,73,66,60,55,50,43,75,56,37,0.00,40.00,0,-999,0,0.00
2013-8-8,73,64,55,57,52,44,89,66,40,0.00,40.00,0,-999,0,0.00
2013-8-9,79,66,56,50,47,40,71,51,25,0.00,40.00,0,-999,0,0.00
2013-8-10,86,68,53,53,43,-100,66,46,19,0.00,40.00,0,-999,0,0.19
2013-8-11,81,71,59,49,46,41,63,41,27,0.00,40.00,0,-999,0,0.00
2013-8-12,79,67,55,56,50,42,90,55,28,0.00,40.00,0,-999,0,0.20
2013-8-13,77,66,54,52,48,42,80,54,33,0.00,40.00,0,-999,0,0.02
2013-8-14,81,67,52,54,46,41,90,52,25,0.00,40.00,0,-999,0,0.00
2013-8-15,84,68,56,50,44,40,62,44,22,0.00,40.00,0,-999,0,0.01
2013-8-16,88,74,58,46,37,-100,54,34,13,0.00,40.00,0,-999,0,0.00
2013-8-17,91,75,59,51,36,-100,72,35,13,0.00,40.00,0,-999,0,0.00
2013-8-18,89,75,60,53,44,34,72,35,16,0.00,40.00,0,-999,0,0.00
2013-8-19,93,78,59,47,38,-100,53,29,13,0.00,40.00,0,-999,0,0.00
2013-8-20,95,80,65,48,38,27,40,25,9,0.00,40.00,0,-999,0,0.00
2013-8-21,88,77,68,56,45,39,62,34,19,0.00,40.00,0,-999,0,0.00
2013-8-22,78,70,61,58,55,52,77,60,43,0.00,40.00,0,-999,0,0.03
2013-8-23,83,72,61,57,52,47,77,51,34,0.00,40.00,0,-999,0,0.14
2013-8-24,81,71,59,58,50,45,69,49,32,0.00,40.00,0,-999,0,0.12
2013-8-25,84,73,61,54,49,45,64,45,25,0.00,40.00,0,-999,0,0.00
2013-8-26,89,74,62,58,52,47,69,47,24,0.00,40.00,0,-999,0,0.06
2013-8-27,88,72,62,59,54,50,82,57,26,0.00,40.00,0,-999,0,0.00
2013-8-28,89,84,78,52,48,43,32,28,23,0.00,40.00,0,-999,0,0.00
2013-8-29,92,79,67,48,44,39,44,29,16,0.00,40.00,0,-999,0,0.00
2013-8-30,86,78,67,50,46,42,48,33,24,0.00,40.00,0,-999,0,0.00
2013-8-31,88,76,63,52,46,41,59,36,19,0.00,40.00,0,-999,0,0.00
2013-9-1,75,69,60,58,55,46,89,62,40,0.00,40.00,0,-999,0,0.03
2013-9-2,88,73,59,57,51,42,78,50,20,0.00,40.00,0,-999,0,0.00
2013-9-3,91,79,64,51,47,43,56,34,19,0.00,40.00,0,-999,0,0.00
2013-9-4,88,77,67,51,48,45,51,37,22,0.00,40.00,0,-999,0,0.00
2013-9-5,90,76,63,53,49,43,68,40,20,0.00,40.00,0,-999,0,0.00
2013-9-6,93,78,66,50,46,39,47,33,17,0.00,40.00,0,-999,0,0.00
2013-9-7,92,77,63,49,45,40,54,35,16,0.00,40.00,0,-999,0,0.00
2013-9-8,85,74,63,49,45,43,51,35,22,0.00,40.00,0,-999,0,0.00
2013-9-9,81,68,58,61,52,45,96,60,31,0.00,40.00,0,-999,0,0.86
2013-9-10,64,60,57,58,57,55,95,90,78,0.00,40.00,0,-999,0,0.21
2013-9-11,61,59,58,60,58,57,98,97,91,0.00,40.00,0,-999,0,5.63
2013-9-12,61,59,57,60,58,56,98,97,95,0.00,40.00,0,-999,0,5.48
2013-9-13,70,62,57,62,58,55,98,87,66,0.00,40.00,0,-999,0,0.34
2013-9-14,73,63,56,57,54,49,93,75,49,0.00,40.00,0,-999,0,0.43
2013-9-15,58,56,53,56,55,52,98,95,91,0.00,40.00,0,-999,0,0.73
2013-9-16,73,59,52,58,54,52,98,85,59,0.00,40.00,0,-999,0,0.12
2013-9-17,82,67,53,54,46,38,87,52,21,0.00,40.00,0,-999,0,0.00
2013-9-18,71,62,58,46,43,38,63,50,32,0.00,40.00,0,-999,0,0.00
2013-9-19,66,59,52,47,42,38,70,55,37,0.00,40.00,0,-999,0,0.00
2013-9-20,69,57,45,46,43,41,86,62,38,0.00,40.00,0,-999,0,0.00
2013-9-21,80,63,49,52,43,39,71,50,31,0.00,40.00,0,-999,0,0.00
2013-9-22,75,66,56,51,44,38,84,46,32,0.00,40.00,0,-999,0,0.05
2013-9-23,67,58,49,50,37,27,92,52,24,0.00,40.00,0,-999,0,0.33
2013-9-24,73,59,46,42,29,-100,61,41,17,0.00,40.00,0,-999,0,0.00
2013-9-25,75,59,45,45,39,32,69,49,32,0.00,40.00,0,-999,0,0.00
2013-9-26,64,56,48,47,42,36,76,60,45,0.00,40.00,0,-999,0,0.00
2013-9-27,54,48,40,49,45,39,97,90,72,0.00,40.00,0,-999,0,0.17
2013-9-28,67,52,35,36,30,24,94,47,21,0.00,40.00,0,-999,0,0.00
2013-9-29,75,61,43,39,27,16,58,31,12,0.00,40.00,0,-999,0,0.00
2013-9-30,73,62,57,42,28,20,36,28,13,0.00,40.00,0,-999,0,0.00
2013-10-1,71,60,55,44,43,39,59,52,31,0.00,40.00,0,-999,0,0.00
2013-10-2,74,61,48,43,38,33,68,46,23,0.00,40.00,0,-999,0,0.00
2013-10-3,57,50,41,47,40,37,96,70,53,0.00,40.00,0,-999,0,0.11
2013-10-4,47,37,31,46,35,27,97,89,74,0.00,40.00,0,-999,0,0.71
2013-10-5,61,44,29,27,21,9,89,48,15,0.00,40.00,0,-999,0,0.00
2013-10-6,66,54,39,35,25,10,60,35,19,0.00,40.00,0,-999,0,0.00
2013-10-7,74,57,41,38,29,-100,67,42,15,0.00,40.00,0,-999,0,0.00
2013-10-8,75,64,55,35,-5,-100,46,26,11,0.00,40.00,0,-999,0,0.00
2013-10-9,62,55,49,44,37,31,75,50,40,0.00,40.00,0,-999,0,0.00
2013-10-10,52,48,45,43,42,38,87,78,71,0.00,40.00,0,-999,0,0.00
2013-10-11,62,54,46,39,29,24,75,38,26,0.00,40.00,0,-999,0,0.00
2013-10-12,53,45,41,40,38,37,85,76,58,0.00,40.00,0,-999,0,0.00
2013-10-13,59,47,36,43,39,33,91,73,51,0.00,40.00,0,-999,0,0.00
2013-10-14,50,46,41,40,36,28,82,68,44,0.00,40.00,0,-999,0,0.07
2013-10-15,40,37,34,31,27,23,72,65,58,0.00,40.00,0,-999,0,0.00
2013-10-16,51,38,28,31,27,23,88,65,41,0.00,40.00,0,-999,0,0.00
2013-10-17,45,40,36,32,28,22,75,61,51,0.00,40.00,0,-999,0,0.00
2013-10-18,46,36,31,33,30,26,98,79,54,0.00,40.00,0,-999,0,0.31
2013-10-19,64,50,32,27,21,17,81,35,17,0.00,40.00,0,-999,0,0.00
2013-10-20,53,42,34,36,29,19,95,65,26,0.00,40.00,0,-999,0,0.21
2013-10-21,59,44,29,33,28,21,95,58,24,0.00,40.00,0,-999,0,0.00
2013-10-22,61,52,39,33,28,21,64,41,28,0.00,40.00,0,-999,0,0.00
2013-10-23,62,50,41,34,30,26,65,46,29,0.00,40.00,0,-999,0,0.00
2013-10-24,53,42,34,38,34,31,90,74,52,0.00,40.00,0,-999,0,0.00
2013-10-25,66,51,37,36,33,26,84,54,28,0.00,40.00,0,-999,0,0.00
2013-10-26,60,49,39,34,32,29,72,52,32,0.00,40.00,0,-999,0,0.00
2013-10-27,69,56,41,29,23,18,59,31,14,0.00,40.00,0,-999,0,0.00
2013-10-28,51,37,31,34,30,24,98,79,34,0.00,40.00,0,-999,0,0.02
2013-10-29,35,33,31,33,32,31,98,93,84,0.00,40.00,0,-999,0,0.00
2013-10-30,40,33,28,35,31,26,98,91,70,0.00,40.00,0,-999,0,0.20
2013-10-31,52,44,32,25,18,14,73,37,21,0.00,40.00,0,-999,0,0.00
2013-11-1,51,42,35,31,24,17,70,50,28,0.00,40.00,0,-999,0,0.00
2013-11-2,61,45,31,28,21,8,64,41,14,0.00,40.00,0,-999,0,0.00
2013-11-3,66,53,39,28,14,-100,57,29,13,0.00,40.00,0,-999,0,0.00
2013-11-4,41,36,30,28,13,-100,88,50,28,0.00,40.00,0,-999,0,0.00
2013-11-5,45,33,29,21,12,0,72,46,16,0.00,40.00,0,-999,0,0.00
2013-11-6,51,40,27,15,10,-1,44,29,21,0.00,40.00,0,-999,0,0.00
2013-11-7,54,42,30,30,23,16,62,46,32,0.00,40.00,0,-999,0,0.00
2013-11-8,67,57,40,23,15,6,50,20,11,0.00,40.00,0,-999,0,0.00
2013-11-9,59,50,39,32,26,13,64,43,16,0.00,40.00,0,-999,0,0.00
2013-11-10,67,48,34,30,24,16,71,42,16,0.00,40.00,0,-999,0,0.00
2013-11-11,65,46,30,32,24,15,89,49,14,0.00,40.00,0,-999,0,0.00
2013-11-12,55,41,29,34,29,25,89,63,42,0.00,40.00,0,-999,0,0.00
2013-11-13,68,53,36,26,16,9,61,26,10,0.00,40.00,0,-999,0,0.00
2013-11-14,59,49,40,32,26,16,62,41,19,0.00,40.00,0,-999,0,0.00
2013-11-15,64,50,36,27,18,9,65,31,11,0.00,40.00,0,-999,0,0.00
2013-11-16,56,47,39,34,18,12,82,33,19,0.00,40.00,0,-999,0,0.01
2013-11-17,57,44,34,26,15,7,65,33,14,0.00,40.00,0,-999,0,0.00
2013-11-18,65,44,28,19,11,-100,61,35,11,0.00,40.00,0,-999,0,0.00
2013-11-19,60,50,38,27,18,7,39,28,15,0.00,40.00,0,-999,0,0.00
2013-11-20,57,49,33,29,24,19,68,38,22,0.00,40.00,0,-999,0,0.00
2013-11-21,28,16,13,25,14,10,94,89,85,0.00,40.00,0,-999,0,0.11
2013-11-22,33,25,16,22,17,11,91,73,47,0.00,40.00,0,-999,0,0.00
2013-11-23,32,27,23,21,20,15,92,73,54,0.00,40.00,0,-999,0,0.04
2013-11-24,42,29,21,28,21,-100,89,76,33,0.00,40.00,0,-999,0,0.00
2013-11-25,41,36,31,28,22,13,76,58,32,0.00,40.00,0,-999,0,0.00
2013-11-26,49,36,28,23,20,15,78,57,26,0.00,40.00,0,-999,0,0.00
2013-11-27,61,42,28,26,20,14,68,44,17,0.00,40.00,0,-999,0,0.00
2013-11-28,45,36,30,26,24,21,75,60,44,0.00,40.00,0,-999,0,0.00
2013-11-29,62,47,32,26,12,-100,75,38,14,0.00,40.00,0,-999,0,0.00
2013-11-30,58,46,36,18,13,5,42,28,13,0.00,40.00,0,-999,0,0.00
2013-12-1,55,46,34,21,17,11,56,33,21,0.00,40.00,0,-999,0,0.00
2013-12-2,56,51,47,22,19,16,36,28,22,0.00,40.00,0,-999,0,0.00
2013-12-3,54,38,11,28,18,8,90,51,22,0.00,40.00,0,-999,0,0.03
2013-12-4,10,7,2,7,3,-2,88,84,81,0.00,40.00,0,-999,0,0.13
2013-12-5,6,0,-7,-2,-5,-11,82,75,64,0.00,40.00,0,-999,0,0.00
2013-12-6,6,0,-5,-3,-6,-11,80,75,65,0.00,40.00,0,-999,0,0.00
2013-12-11,26,21,19,17,15,11,82,76,66,0.00,40.00,0,-999,0,0.00
2013-12-12,49,32,21,19,12,7,65,44,24,0.00,40.00,0,-999,0,0.11
2013-12-13,49,36,28,19,13,9,58,40,20,0.00,40.00,0,-999,0,0.00
2013-12-14,44,34,23,19,13,8,69,44,24,0.00,40.00,0,-999,0,0.00
2013-12-15,54,48,41,16,12,8,34,24,16,0.00,40.00,0,-999,0,0.00
2013-12-16,60,51,41,15,10,3,30,19,11,0.00,40.00,0,-999,0,0.00
2013-12-17,62,51,33,16,10,6,49,21,11,0.00,40.00,0,-999,0,0.00
2013-12-18,66,58,52,11,7,4,17,12,9,0.00,40.00,0,-999,0,0.00
2013-12-19,53,36,16,25,18,12,94,52,19,0.00,40.00,0,-999,0,0.00
2013-12-20,23,19,16,19,16,14,93,90,85,0.00,40.00,0,-999,0,0.00
2013-12-21,30,22,13,24,18,11,93,82,61,0.00,40.00,0,-999,0,0.00
2013-12-22,37,26,16,21,16,11,89,68,36,0.00,40.00,0,-999,0,0.02
2013-12-23,46,28,18,23,19,16,93,73,35,0.00,40.00,0,-999,0,0.02
2013-12-24,50,43,32,30,17,2,54,35,24,0.00,40.00,0,-999,0,0.00
2013-12-25,46,35,23,11,5,-3,60,30,12,0.00,40.00,0,-999,0,0.00
2013-12-26,56,46,32,14,6,-5,46,21,13,0.00,40.00,0,-999,0,0.00
2013-12-27,57,43,31,20,17,15,54,36,21,0.00,40.00,0,-999,0,0.00
2013-12-28,53,39,22,24,21,18,88,53,28,0.00,40.00,0,-999,0,0.00
2013-12-29,39,25,14,19,13,4,92,64,23,0.00,40.00,0,-999,0,0.05
2013-12-30,48,39,32,13,10,7,43,30,18,0.00,40.00,0,-999,0,0.00
2013-12-31,55,46,32,19,16,11,48,31,22,0.00,40.00,0,-999,0,0.00
2014-1-1,45,34,23,29,23,17,91,66,32,0.00,40.00,0,-999,0,0.01
2014-1-2,38,28,20,22,19,16,86,69,48,0.00,40.00,0,-999,0,0.00